星链-31134 (STARLINK-31134 )

导读

STARLINK-31134是美国星链计划的卫星,于2023年12月23日发射升空,属于SpaceX星链星座组网卫星,主要为全球提供高速低延迟互联网服务,尤其服务偏远地区、移动载体等传统网络覆盖不足场景。星链持续大规模部署卫星,该星助力扩大星座覆盖规模,也引发了太空轨道资源竞争等讨论。

基本信息
目录编号:
58621
目录名称:
STARLINK-31134
国际标识:
2023-203D
轨道中心:
EARTH
卫星名称:
星链-31134
卫星全名:
星链-31134 (STARLINK-31134 )
卫星状态:
在轨 (已飞行986 天)
发射日期:
2023-12-23 UTC
国别 :
美国 (US)
星等 :
--
轨道信息
数据来源 国际轨道数据 AOE轨道数据
星历时间 2026-09-04T10:40:27+0800
9小时前
查看轨道信息
2026-09-03T23:00:00+0800
21小时前
查看轨道信息
半长轴 6861.19km 6861.18km
偏心率 0.0001579 0.0001447
轨道倾角 43.002° 43.003°
近地点辐角 265.753° 258.366°
升交点赤经 139.892° 142.645°
平近点角 94.314° 303.619°
近地点 481.969km 482.05km
远地点 484.137km 484.036km
周期 94.267分钟 94.267分钟
每日圈数 15.275788 15.275821
详细信息
固有亮度:
5
最大亮度:
0.3
卫星平台:
Starlink v2.0 mini
覆盖范围:
全球
运营商:
太空探索技术公司
运营商所在国:
美国
制造商(研发单位):
太空探索技术公司
制造商所在国:
美国
使用方式:
暂无
卫星简介
星链(Starlink)计划是由太空探索技术公司(SpaceX)提出的一个巨型低轨卫星互联网星座项目,计划在2019年至2024年间在太空搭建由约1.2万颗卫星组成的“星链”网络,其中1584颗将部署在地球上空550千米处的近地轨道,并从2020年开始工作。该卫星仍在工作。
2D轨道图
3D轨道图
轨道高度分析图
轨道倾角分析图
轨道综合分析图
查看轨道综合分析图
交会数据列表
事件ID 空间交会对象 最接近时刻(TCA) 交会距离 交会风险概率(CRP) 交会风险指数(CRI) 操作
CDM_260905-125605-819205-862121
2026-09-05T
12:56:06+0000
0.682 km
远距离
5.273694E-5 中风险 0.69
CDM_260905-072805-609805-862121
2026-09-05T
07:28:42+0000
0.733 km
远距离
4.739146E-5 中风险 0.69
CDM_260905-213305-819205-862121
2026-09-05T
21:33:56+0000
0.823 km
远距离
2.91417E-5 中风险 0.64
CDM_260903-232405-322405-862121
2026-09-03T
23:24:51+0000
1.517 km
极远距离
6.27996E-6 低风险 0.51
CDM_260905-055405-609805-862121
2026-09-05T
05:54:32+0000
1.597 km
极远距离
3.51665E-6 低风险 0.46
CDM_260905-021805-862106-262222
2026-09-05T
02:18:24+0000
1.990 km
极远距离
2.831457E-6 低风险 0.44
CDM_260905-143005-819205-862121
2026-09-05T
14:30:15+0000
2.035 km
极远距离
1.628025E-6 低风险 0.39
CDM_260905-042005-609805-862121
2026-09-05T
04:20:23+0000
2.495 km
极远距离
1.190921E-6 低风险 0.37
CDM_260905-230805-819205-862121
2026-09-05T
23:08:05+0000
2.773 km
极远距离
9.210067E-7 极低风险 0.34